Location: Bord�res
(43.2000°N, 0.2167°W)
Time: 14:38:11
(UTC+00:00)

Cosmos 1666 - Pass Details

Date: 03 March 2021
Orbit: 497 x 518 km, 82.5° (Epoch: 21 April)

Event Time Altitude Azimuth Distance (km) Brightness Sun altitude
Rises 20:02:15 0° 205° (SSW) 2,571 6.4 -24.2°
Reaches altitude 10° 20:04:28 10° 214° (SW) 1,694 5.5 -24.6°
Maximum altitude 20:07:55 36° 283° (WNW) 800 4.1 -25.2°
Drops below altitude 10° 20:11:24 10° 352° (N) 1,713 5.6 -25.9°
Sets 20:13:40 0° 1° (N) 2,604 6.5 -26.2°
